User: anonymous
Location: Unspecified
(0.0000°N, 0.0000°E)
Time: 10:26:30
(UTC+00:00)
Language:

X-37B - Orbit

View from above orbital plane
View from above orbital plane
View from above satellite
View from above satellite

Ground track
Ground track

The orbit data is extracted from the following two-line orbital elements,

1 39025U 12071A   14271.95590843 0.00000000  00000-0  00000-0 0    01
2 39025  43.5000 220.4729 0002000 224.5024 135.4971 15.83348722    03
Epoch (UTC): 28 September 2014 22:56:30
Eccentricity: 0.0002000
inclination: 43.5000°
perigee height: 319 km
apogee height: 322 km
right ascension of ascending node: 220.4729°
argument of perigee: 224.5024°
revolutions per day: 15.83348722
mean anomaly at epoch: 135.4971°
orbit number at epoch: 0

The dashed part of the orbit path shows where the satellite is in the earth's shadow,  

DLR